Location: Trani
(41.2830°N, 16.4170°E)
Time: 18:06:07
(UTC+02:00)

N. Korean satellite - Pass Details

Date: 06 August 2021
Orbit: 448 x 499 km, 97.3° (Epoch: 16 September)

Event Time Altitude Azimuth Distance (km) Brightness Sun altitude
Rises 05:14:10 0° 32° (NNE) 2,529 11.5 -7.6°
Reaches altitude 10° 05:17:04 10° 59° (ENE) 1,632 11.1 -7.1°
Maximum altitude 05:18:59 14° 92° (E) 1,388 9.9 -6.8°
Drops below altitude 10° 05:20:52 10° 125° (SE) 1,608 9.6 -6.5°
Sets 05:23:40 0° 152° (SSE) 2,465 10.2 -6.1°
